Showing default

YAOGAN-30 B, 42946

Orbit data source: Space-Track

YAOGAN-30 B, 42946 is a payload satellite owned by PLA SSF (CN) in LEO that was launched on Fri, 29 Sep 2017 UTC via a CHANG ZHENG 2C launch vehicle from the Xichang Space Center, China (XSC). Payload-class satellites include a variety of spacecraft equipped with specific instruments for various scientific and technological missions. These include communications satellites like Starlink; space stations such as the ISS; scientific satellites like the Hubble; Earth observation satellites from companies like Planet Labs, Umbra, and HawkEye 360; GPS; miniature CubeSats for education and research; and military/defense satellites.

Loading next visibility...
Identifier
42946, 2017-058B
Orbit
LEO
Country
Flag of CNCN / PRC
Related business
Manufacturer
SECM
Mission
Operational Defense Sigint
Bus & Motor
Unknown
Mass
~500 kg wet, ~500 kg dry
Launch date (UTC)
2017-09-29 (8 years ago)
Launch vehicle
CHANG ZHENG 2C
Launch site
Xichang Space Center, China (XSC)
Object type
Payload
Rocket body
Debris
Shape & HBR
Box + 2 Pan, 0.5 m
Radar Cross Section
0.446 m², Large (>1 m²)

Expand to show TLE details & history
Last TLE update: 13 hours ago

TLE from 13 hours ago
0 YAOGAN-30 B
1 42946U 17058B   25261.31406054  .00003075  00000-0  24079-3 0  9995
2 42946  34.9970 245.0606 0001321 116.0399 244.0444 15.00596379434961
Epoch: 2025-09-18T07:32Z
TLE epoch observation values (Epoch: 2025-09-18T07:32:14.83Z)
Latitude
-0.00006°
Longitude
134.52128°
Altitude
564.375 km
Speed
7.581 km/s
True Right ascension
16h 20m 14s
True Declination
0° 00' 00"
Sunlit
Object was in daylight at epoch
Visualization orbit readout
Latitude
Unknown
Longitude
Unknown
Altitude
Unknown
Speed
Unknown
Apparent Right ascension
Unknown
Apparent Declination
Unknown
Sunlit
N/A
Visualization observer readout
Local Sidereal Time
13:02:41
Azimuth
Unknown
Elevation
Unknown
Doppler factor
Unknown
Orbital elements
Apogee altitude
569.192 km
Perigee altitude
567.357 km
Semi-major axis
6,946.412 km
Eccentricity
0.00013
Inclination
34.997°
RAAN
245.0606°
Arg. of periapsis
116.0399°
True anomaly
244.03079°
Mean anomaly
244.0444°
Eccentric anomaly
244.0376°
Mean motion
3.74889 °/min
Orbital period
96.03 mins
BSTAR
0.00024079
Loading maneuver chart data...
Computing Atmospheric mass density...
Loading historical data...
Loading historical data...
Loading historical data...
Loading historical data...
Loading historical data...
Loading historical data...
Loading historical data...
Other satellites on launch #58 in the year 2017 (2017-09-29 UTC)

Documentation

Showing up to 5 results
|